Overview Statistics Trail Chart Weather Telemetry Raw packets
 

This is the latest recevied weather packets stored in our database for station/object KB1WCR. If no packets are shown the sender has not sent any weather packets the latest 10 day(s).

<< 31 32 33 34 35 36 37 >>
Time Temp. Humidity Pressure Rain* Wind** Luminosity Snow
1788202048 25.56° C 40% 1018.7 hPa 0 mm - 580 W/m² -
1788201744 25° C 41% 1018.7 hPa 0 mm - 592 W/m² -
1788201443 25° C 39% 1018.9 hPa 0 mm - 600 W/m² -
1788201138 25.56° C 38% 1019 hPa 0 mm - 610 W/m² -
1788200837 25° C 39% 1018.8 hPa 0 mm - 618 W/m² -
1788200533 25° C 38% 1018.9 hPa 0 mm - 628 W/m² -
1788200232 25.56° C 37% 1019 hPa 0 mm - 633 W/m² -
1788199928 25° C 39% 1018.9 hPa 0 mm - 642 W/m² -
1788199623 25° C 46% 1019.1 hPa 0 mm - 647 W/m² -
1788199318 24.44° C 44% 1019.1 hPa 0 mm - 654 W/m² -
1788199017 24.44° C 44% 1019 hPa 0 mm - 661 W/m² -
1788198715 24.44° C 43% 1019.2 hPa 0 mm - 668 W/m² -
1788198414 25° C 46% 1019.4 hPa 0 mm - 674 W/m² -
1788198109 24.44° C 44% 1019.3 hPa 0 mm - 680 W/m² -
1788197808 24.44° C 45% 1019.4 hPa 0 mm - 684 W/m² -
1788197504 23.89° C 51% 1019.4 hPa 0 mm - 690 W/m² -
1788197204 23.89° C 46% 1019.3 hPa 0 mm - 692 W/m² -
1788196899 23.89° C 45% 1019.4 hPa 0 mm - 697 W/m² -
1788196593 24.44° C 49% 1019.5 hPa 0 mm - 702 W/m² -
1788196291 24.44° C 46% 1019.5 hPa 0 mm - 702 W/m² -
1788195987 24.44° C 46% 1019.7 hPa 0 mm - 705 W/m² -
1788195684 23.89° C 50% 1019.6 hPa 0 mm - 707 W/m² -
1788195379 23.89° C 48% 1019.8 hPa 0 mm - 711 W/m² -
1788195076 23.33° C 46% 1019.9 hPa 0 mm - 714 W/m² -
1788194772 23.89° C 46% 1019.7 hPa 0 mm - 714 W/m² -

* Rain latest hour (hover to see other rain measurements)
** Current wind speed in m/s (hover to see current wind gust speed)